Location: Poughquag
(41.6090°N, 73.6820°W)
Time: 11:40:32
(UTC-05:00)

CAS-4A - Visible Passes

Search period start: 30 November 2023 00:00
Search period end: 10 December 2023 00:00
Orbit: 494 x 509 km, 43.0° (Epoch: 30 November)

Date Brightness Start Highest point End Pass type
(mag) Time Alt. Az. Time Alt. Az. Time Alt. Az.
30 Nov ? 17:59:46 10° W 18:03:38 79° N 18:04:38 47° ENE visible
01 Dec ? 17:38:01 10° W 17:41:53 77° N 17:43:55 26° ENE visible
01 Dec ? 19:17:31 10° WNW 19:18:32 17° WNW 19:18:32 17° WNW visible
02 Dec ? 17:16:13 10° W 17:20:06 76° N 17:23:10 15° ENE visible
02 Dec ? 18:55:43 10° WNW 18:57:47 30° WNW 18:57:47 30° WNW visible
03 Dec ? 16:54:24 10° W 16:58:17 75° N 17:02:08 10° E visible
03 Dec ? 18:33:53 10° WNW 18:37:03 57° WNW 18:37:03 57° WNW visible
04 Dec ? 18:12:02 10° WNW 18:15:54 85° NNE 18:16:19 69° E visible
05 Dec ? 17:50:07 10° WNW 17:54:00 87° NNE 17:55:38 33° E visible
05 Dec ? 19:29:41 10° W 19:30:15 13° W 19:30:15 13° W visible
06 Dec ? 17:28:10 10° WNW 17:32:03 90° NNE 17:35:01 16° ESE visible
06 Dec ? 19:07:46 10° W 19:09:39 22° WSW 19:09:39 22° WSW visible
07 Dec ? 17:06:12 10° WNW 17:10:05 88° SSW 17:13:57 10° ESE visible
07 Dec ? 18:45:49 10° W 18:49:09 28° SSW 18:49:09 28° SSW visible
08 Dec ? 18:23:50 10° W 18:27:07 27° SSW 18:28:49 19° S visible
09 Dec ? 18:01:49 10° W 18:05:03 25° SSW 18:08:15 10° SSE visible
